Wind_Speed
11 11 11 11 11 10 10 11 11 10 11 11 11 10 10 11 11 12 12 12 12 12 12 12 12 13 13 13 13 13 12 12 12 12 12 12 12 12 12 12 12 12 13 13
12 11 11 11 11 11 11 11 11 11 11 12 12 12 12 11 11 12 12 13 13 13 13 13 12 13 13 13 13 13 13 12 12 12 12 13 12 13 12 13 12 12 13 13
12 12 12 12 12 12 12 12 12 12 12 13 13 12 12 12 12 12 12 12 12 12 12 12 12 12 13 13 14 14 14 14 13 13 13 13 13 13 13 13 13 14 14 13
13 13 13 13 13 13 13 12 13 13 14 14 13 13 12 11 12 12 12 13 12 12 13 13 13 13 13 13 14 14 14 14 14 14 14 14 14 14 15 15 15 15 15 14
14 14 14 14 13 14 14 14 14 14 15 15 14 14 12 12 12 12 13 13 13 13 14 13 13 13 14 14 15 14 14 14 14 14 14 15 15 15 16 16 16 16 16 16
15 15 15 14 14 14 15 15 15 15 16 16 14 15 13 12 12 13 13 14 15 15 15 15 15 15 15 15 15 15 15 15 14 14 15 15 15 16 16 17 17 16 16 17
15 16 15 15 15 15 16 16 16 17 16 16 14 15 13 12 13 14 14 15 16 16 16 16 15 16 16 16 16 17 16 16 16 16 16 17 17 17 17 17 17 17 18 18
16 16 16 16 16 16 16 17 17 18 17 16 15 15 13 13 14 14 15 16 17 17 17 16 16 16 16 17 17 17 17 17 17 17 18 18 18 18 18 18 18 19 19 19
17 17 16 17 17 17 17 17 17 18 18 18 17 16 15 15 15 15 16 17 17 17 17 17 18 18 18 18 18 18 18 19 19 19 19 18 19 19 20 20 20 20 20 20
17 18 17 17 18 18 17 17 18 18 19 19 18 17 17 16 16 16 17 17 17 17 17 18 18 19 19 18 18 18 19 20 19 19 19 19 20 20 21 21 22 21 21 21
17 18 17 17 18 18 18 18 19 19 20 21 21 19 18 17 17 16 16 17 18 18 18 18 18 19 19 19 20 20 20 20 20 20 20 20 21 21 21 22 22 22 22 22
17 18 18 17 18 18 19 19 19 20 21 22 23 20 19 18 18 18 18 17 17 18 18 18 18 19 20 20 20 20 21 20 20 20 21 21 21 22 22 23 23 23 23 24
18 19 19 18 18 18 19 19 20 21 22 23 23 21 20 19 19 19 18 18 18 18 18 18 19 19 20 20 20 20 21 21 21 21 21 22 22 23 23 24 24 24 24 25
18 19 20 20 19 19 20 20 20 22 23 23 22 22 20 20 20 20 19 19 19 20 20 19 19 20 20 20 20 21 21 22 22 22 22 23 23 23 24 24 24 24 25 25
19 20 20 21 21 20 20 21 21 22 22 23 22 22 21 21 21 21 20 20 20 20 20 20 20 20 21 21 21 21 21 22 22 23 23 23 24 24 25 25 25 25 26 26
20 20 21 21 21 21 21 22 22 22 22 22 22 22 22 22 22 22 22 22 21 21 21 21 21 21 22 22 22 21 22 22 23 24 24 24 24 25 25 25 25 25 26 26
21 21 21 22 21 22 21 21 22 22 22 23 23 23 22 22 22 22 23 23 22 22 22 22 22 22 23 23 23 22 23 23 23 24 24 25 25 25 25 25 25 26 26 26
22 21 21 21 21 22 21 21 22 22 22 23 23 22 23 23 22 22 23 24 23 23 23 23 23 23 23 24 24 24 24 24 24 24 24 25 25 25 25 25 25 26 26 25
22 23 23 22 22 23 22 22 22 23 23 23 24 23 23 23 22 23 24 24 24 24 25 24 24 24 24 24 25 25 25 25 25 25 25 25 25 25 25 25 25 25 25 25
22 23 25 25 25 24 23 23 24 25 24 23 24 24 24 24 23 22 24 25 25 25 26 25 24 24 25 25 25 25 25 25 25 26 25 25 25 25 25 24 24 24 24 24
24 24 25 26 27 25 24 24 24 25 25 24 25 25 25 25 24 24 25 26 26 25 25 25 25 25 25 25 25 25 25 25 25 25 25 25 24 23 23 24 24 24 24 24
24 25 25 26 27 26 26 26 26 26 26 26 26 26 26 26 25 25 25 26 26 26 26 26 25 25 26 25 25 25 25 25 25 25 24 24 24 23 23 23 24 24 24 24
24 25 25 26 27 27 28 28 27 27 27 27 27 27 27 27 26 26 26 26 26 26 26 26 26 26 26 26 25 25 25 25 25 25 25 25 25 24 23 23 23 24 24 24
24 25 26 26 26 26 27 27 28 29 28 28 28 28 28 27 27 26 26 26 26 26 26 26 27 27 26 26 25 25 25 25 25 25 25 24 24 24 24 23 23 23 23 23
24 25 25 26 26 26 27 27 27 28 29 29 28 28 28 28 27 26 25 25 25 25 25 26 26 26 26 25 25 25 26 26 25 25 25 24 24 24 24 24 23 23 23 24
24 24 25 25 26 26 27 27 28 29 28 28 28 27 27 27 27 26 25 25 25 25 25 26 26 26 25 25 26 26 26 26 25 25 25 25 25 25 25 24 24 24 24 24
Wind_Direction
268 268 270 273 272 270 270 269 267 267 266 264 263 264 263 263 267 271 272 271 270 267 264 263 262 263 263 262 260 259 258 261 265 267 268 268 270 272 274 275 277 278 280 281
265 268 270 270 270 270 271 270 269 268 266 266 265 265 266 267 269 273 273 272 271 267 265 263 262 262 263 261 259 259 259 260 263 266 269 267 268 270 270 272 277 277 280 281
266 268 269 269 270 270 270 271 270 269 268 269 268 265 267 269 270 272 271 268 268 268 265 261 261 262 264 263 260 259 259 260 262 266 268 269 266 269 268 270 274 276 280 281
264 266 266 267 268 269 269 269 269 269 269 269 271 269 266 271 271 270 268 267 267 266 265 262 263 264 266 267 265 265 264 263 265 269 271 274 271 270 272 273 273 277 279 281
265 264 265 266 267 267 270 270 269 269 270 270 273 274 270 272 272 270 267 266 264 264 265 265 264 266 267 268 265 266 268 267 269 269 271 275 274 271 272 273 274 276 277 277
265 265 264 265 265 266 269 270 270 270 270 270 273 277 276 277 276 273 268 266 265 264 267 270 267 267 267 266 264 264 268 269 270 270 271 274 277 275 272 273 274 275 276 277
266 265 264 264 263 264 267 269 268 269 270 272 274 276 277 277 277 277 273 268 266 267 268 270 270 268 268 268 266 266 267 268 270 272 273 275 277 276 273 274 275 276 276 276
270 267 264 264 265 266 266 268 269 270 271 274 275 276 277 277 277 276 274 270 268 270 271 272 273 270 270 270 268 269 270 271 271 273 274 276 277 276 275 274 274 275 277 276
272 270 268 266 266 266 266 266 268 268 268 269 272 272 273 277 279 276 274 272 271 271 272 273 273 272 272 272 271 269 270 271 272 273 274 273 274 274 275 275 276 276 277 277
273 271 270 267 265 264 265 266 265 264 266 268 271 272 275 277 278 278 275 273 271 271 273 272 272 273 272 272 270 268 269 272 273 273 272 271 274 275 276 275 275 275 276 276
273 272 271 268 266 265 264 265 266 266 267 269 272 274 278 279 278 277 275 274 272 272 273 273 274 274 271 269 270 270 271 273 273 272 273 273 274 274 275 275 276 276 275 274
273 273 272 272 270 268 266 264 265 266 269 271 274 274 276 279 278 276 275 274 274 274 274 273 272 272 271 270 270 270 271 272 272 273 274 274 275 275 276 277 278 276 275 273
273 273 273 273 271 268 266 265 265 266 269 271 274 276 276 278 278 276 274 272 272 272 272 272 270 271 271 270 269 270 271 272 272 272 273 274 275 276 276 277 278 275 274 273
274 273 273 273 273 270 267 266 266 266 269 271 272 274 274 275 275 275 274 273 272 272 272 272 271 272 272 272 272 272 272 272 272 272 273 274 275 276 277 278 278 278 276 276
274 275 274 273 272 272 268 266 265 266 269 272 273 274 275 275 275 275 275 274 274 275 273 272 272 273 273 273 273 273 272 272 271 273 274 275 276 275 276 279 280 279 278 278
273 275 274 273 273 272 269 266 266 267 269 270 272 273 275 276 274 275 275 275 276 277 276 273 272 274 274 273 273 274 274 274 274 275 275 275 276 277 277 278 278 279 279 279
271 275 275 273 273 272 271 270 270 270 270 271 272 275 276 276 277 277 275 275 275 277 276 274 272 273 274 274 274 275 275 275 276 277 276 276 276 277 278 277 277 278 280 280
272 274 276 275 272 271 273 273 272 272 272 273 275 276 276 276 277 276 276 276 275 275 275 275 273 272 272 272 272 275 276 276 277 278 278 277 277 277 278 278 277 278 279 281
272 272 273 275 273 272 273 274 275 274 275 275 275 275 276 278 277 274 275 275 275 274 274 274 274 273 273 272 272 274 276 277 277 278 280 278 277 277 278 277 277 278 279 280
272 272 272 273 274 275 274 276 276 277 277 276 276 276 277 278 277 275 273 273 274 276 276 276 274 274 274 274 274 274 276 277 277 277 279 279 278 278 279 278 278 279 280 282
272 271 272 272 272 273 274 277 277 277 279 279 277 277 277 278 277 276 273 273 274 275 277 276 275 275 275 276 275 275 275 276 277 277 279 278 278 278 279 279 279 280 282 283
273 274 274 273 274 274 272 275 277 280 281 280 277 277 277 278 277 276 274 273 273 274 275 276 275 275 275 276 275 275 275 275 276 277 279 279 280 280 279 279 280 280 282 284
277 277 276 275 276 277 276 276 277 280 280 279 279 279 278 278 278 276 275 274 273 273 274 275 275 276 275 275 275 274 275 275 276 277 278 280 280 282 281 281 281 282 283 284
278 279 277 276 275 277 278 278 278 278 279 278 279 279 279 279 278 276 274 274 274 275 274 275 276 276 276 275 272 272 275 276 277 276 278 279 280 282 283 282 282 282 283 284
280 280 279 278 277 277 277 279 280 280 279 279 279 279 278 278 277 275 273 274 273 274 274 274 275 274 274 273 272 272 274 277 277 276 277 279 281 283 282 283 284 283 283 285
281 280 280 279 279 278 279 281 281 282 281 280 280 277 277 277 276 273 271 273 273 273 273 274 273 273 273 272 273 273 275 275 275 276 277 279 280 280 281 283 284 285 286 287
Height
5821 5822 5822 5823 5823 5823 5823 5824 5824 5824 5824 5824 5824 5825 5825 5824 5824 5824 5824 5824 5824 5824 5824 5824 5824 5824 5824 5824 5824 5824 5824 5824 5824 5825 5825 5825 5825 5825 5825 5825 5824 5824 5824 5823
5819 5820 5821 5820 5820 5820 5821 5821 5821 5822 5822 5822 5822 5822 5822 5821 5821 5821 5821 5821 5820 5820 5820 5820 5820 5820 5821 5821 5820 5821 5821 5821 5821 5821 5821 5821 5822 5821 5821 5821 5821 5821 5820 5819
5816 5818 5817 5817 5818 5818 5818 5818 5818 5819 5819 5819 5819 5820 5819 5819 5819 5818 5818 5817 5817 5817 5817 5817 5817 5817 5817 5817 5817 5817 5817 5817 5817 5817 5818 5818 5818 5818 5818 5818 5818 5817 5817 5816
5813 5814 5814 5815 5815 5815 5815 5816 5816 5815 5815 5815 5816 5816 5817 5816 5816 5815 5815 5814 5814 5814 5814 5814 5814 5814 5813 5813 5813 5814 5814 5814 5814 5814 5814 5814 5814 5815 5815 5815 5814 5814 5813 5812
5810 5810 5811 5811 5812 5812 5812 5812 5812 5812 5811 5812 5812 5812 5814 5813 5812 5812 5812 5811 5811 5811 5811 5811 5810 5810 5810 5810 5810 5810 5810 5810 5810 5810 5810 5811 5811 5811 5811 5810 5810 5810 5809 5809
5807 5807 5807 5808 5808 5809 5809 5809 5808 5808 5808 5809 5809 5809 5810 5809 5809 5809 5808 5808 5807 5807 5807 5807 5807 5806 5806 5806 5806 5806 5807 5807 5807 5807 5807 5806 5806 5806 5806 5806 5806 5805 5805 5805
5803 5803 5804 5804 5804 5805 5805 5806 5805 5804 5804 5805 5805 5805 5806 5805 5805 5805 5804 5804 5804 5803 5803 5803 5802 5802 5802 5802 5802 5802 5802 5803 5803 5803 5802 5802 5802 5802 5802 5801 5801 5801 5800 5800
5799 5800 5800 5800 5801 5801 5801 5802 5802 5801 5801 5801 5801 5801 5803 5802 5801 5800 5800 5800 5799 5799 5799 5799 5798 5798 5798 5798 5798 5798 5798 5798 5798 5798 5798 5797 5797 5797 5797 5796 5796 5796 5795 5795
5795 5796 5796 5796 5796 5797 5797 5797 5797 5797 5796 5797 5797 5798 5799 5798 5798 5797 5796 5795 5795 5795 5795 5794 5794 5794 5794 5793 5793 5793 5793 5793 5793 5793 5792 5792 5792 5791 5791 5791 5791 5790 5790 5789
5790 5791 5792 5792 5792 5792 5793 5793 5793 5792 5791 5792 5792 5793 5794 5794 5794 5793 5792 5791 5791 5790 5790 5790 5789 5789 5789 5788 5788 5787 5787 5787 5787 5787 5787 5787 5786 5786 5785 5785 5784 5784 5784 5783
5786 5787 5787 5787 5787 5788 5788 5788 5788 5787 5787 5787 5787 5791 5790 5790 5789 5788 5787 5787 5786 5786 5785 5784 5784 5783 5783 5783 5782 5782 5782 5782 5781 5781 5781 5781 5780 5780 5779 5778 5778 5777 5777 5777
5781 5782 5782 5782 5783 5782 5783 5783 5783 5783 5783 5782 5782 5786 5784 5784 5783 5783 5783 5782 5781 5781 5780 5779 5779 5778 5777 5777 5777 5777 5776 5776 5775 5775 5775 5774 5774 5773 5773 5772 5771 5771 5770 5770
5777 5777 5777 5777 5779 5778 5777 5777 5778 5778 5777 5777 5777 5781 5778 5778 5778 5777 5777 5776 5776 5775 5775 5774 5773 5773 5772 5771 5771 5771 5770 5770 5769 5769 5768 5768 5768 5767 5766 5765 5764 5764 5763 5763
5772 5772 5773 5773 5773 5772 5772 5772 5772 5772 5771 5771 5772 5772 5773 5772 5772 5772 5772 5771 5771 5770 5769 5769 5768 5767 5766 5765 5765 5765 5764 5763 5763 5762 5762 5761 5761 5760 5759 5758 5757 5756 5755 5755
5767 5767 5767 5767 5767 5767 5767 5767 5767 5766 5766 5766 5767 5766 5766 5766 5766 5766 5765 5765 5765 5764 5764 5763 5762 5761 5760 5760 5759 5758 5757 5757 5756 5756 5755 5754 5753 5752 5751 5751 5750 5748 5748 5747
5761 5762 5761 5762 5761 5761 5761 5761 5761 5761 5761 5760 5760 5761 5760 5760 5760 5759 5759 5759 5758 5758 5757 5756 5756 5755 5754 5753 5752 5752 5751 5750 5750 5749 5748 5747 5746 5745 5744 5743 5742 5741 5740 5739
5756 5756 5755 5756 5756 5755 5756 5756 5756 5756 5755 5755 5754 5756 5754 5754 5753 5753 5752 5752 5751 5751 5750 5749 5749 5748 5747 5746 5745 5745 5744 5743 5742 5742 5741 5739 5739 5737 5736 5735 5734 5733 5732 5731
5750 5750 5749 5749 5750 5749 5752 5750 5750 5750 5750 5749 5748 5748 5748 5747 5747 5746 5745 5745 5744 5743 5743 5742 5741 5740 5740 5739 5738 5737 5737 5736 5735 5734 5733 5732 5730 5729 5728 5727 5726 5725 5724 5722
5744 5744 5743 5743 5742 5743 5745 5744 5743 5743 5743 5743 5742 5742 5741 5741 5740 5740 5738 5738 5737 5736 5735 5734 5734 5733 5732 5731 5730 5730 5729 5728 5727 5726 5725 5724 5723 5722 5721 5719 5718 5717 5715 5714
5738 5738 5738 5737 5736 5737 5739 5738 5737 5737 5737 5737 5736 5735 5735 5734 5734 5734 5732 5730 5730 5729 5728 5727 5726 5725 5724 5723 5723 5722 5721 5720 5719 5718 5717 5716 5715 5714 5713 5712 5711 5709 5708 5706
5732 5731 5731 5730 5729 5730 5732 5731 5731 5731 5731 5730 5729 5728 5727 5727 5727 5726 5724 5723 5722 5721 5720 5719 5718 5717 5717 5716 5715 5714 5714 5713 5712 5711 5710 5708 5707 5706 5705 5704 5703 5702 5701 5699
5725 5724 5724 5724 5723 5726 5724 5723 5724 5723 5723 5722 5721 5720 5720 5719 5718 5717 5716 5715 5714 5713 5712 5711 5710 5710 5709 5708 5707 5707 5706 5705 5705 5704 5703 5701 5700 5699 5698 5697 5696 5695 5693 5692
5719 5719 5718 5718 5719 5718 5717 5716 5716 5715 5715 5714 5714 5713 5712 5711 5710 5709 5708 5707 5706 5705 5704 5703 5702 5702 5701 5700 5700 5699 5698 5698 5697 5696 5696 5695 5694 5692 5691 5690 5689 5687 5686 5685
5712 5711 5711 5711 5711 5710 5709 5709 5708 5707 5707 5706 5706 5705 5704 5703 5702 5701 5700 5699 5698 5697 5696 5695 5695 5694 5693 5692 5692 5691 5691 5690 5690 5689 5689 5688 5687 5686 5684 5683 5681 5680 5679 5677
5706 5705 5704 5703 5703 5702 5702 5701 5700 5700 5699 5698 5698 5697 5696 5695 5694 5693 5692 5691 5690 5689 5688 5688 5687 5686 5685 5684 5684 5684 5683 5683 5682 5682 5681 5680 5679 5678 5677 5676 5675 5673 5672 5670
5699 5698 5697 5696 5696 5694 5694 5694 5693 5692 5691 5690 5689 5689 5687 5686 5686 5685 5684 5683 5682 5681 5681 5680 5679 5678 5677 5677 5677 5676 5676 5675 5675 5674 5674 5673 5672 5671 5670 5669 5668 5666 5665 5663